Location: Peterborough
(44.3091°N, 78.3197°W)
Time: 07:25:34
(UTC-04:00)

A-11 Canister half - Pass Details

Date: 31 March 2023
Orbit: 1513 x 1686 km, 47.2° (Epoch: 04 June)

Event Time Altitude Azimuth Distance (km) Brightness Sun altitude
Rises 01:14:03 0° 285° (WNW) 4,867 11.8 -41.6°
Reaches altitude 10° 01:17:09 10° 286° (WNW) 3,899 11.2 -41.6°
Enters shadow 01:23:31 46° 291° (WNW) 2,136 9.7 -41.6°
Exits shadow 01:39:24 - 106° (ESE) 4,534 11.4 -41.4°
Sets 01:40:40 0° 106° (ESE) 4,930 11.6 -41.4°
